KE4OGG Weather Reports


time (UTC)temp
F
wind
direction
speed
knots
gust
knots
rain 1hr
in
rain 24hr
in
rain mn
in
humidity
%
barometer
mb
20260509032525 59 0 0.0 0.9 0.00 0.00 0.00 61 1015.9
20260509032023 59 0 0.0 0.0 0.00 0.00 0.00 62 1015.9
20260509031540 59 0 0.0 0.0 0.00 0.00 0.00 62 1015.7
20260509031024 59 0 0.0 0.0 0.00 0.00 0.00 63 1015.6
20260509030526 59 0 0.0 0.0 0.00 0.00 0.00 62 1015.8
20260509030038 59 0 0.0 0.0 0.00 0.00 0.00 62 1015.7
20260509025523 59 0 0.0 0.0 0.00 0.00 0.00 62 1015.6
20260509025024 59 0 0.0 0.0 0.00 0.00 0.00 62 1015.7
20260509024537 59 0 0.0 0.0 0.00 0.00 0.00 62 1015.6
20260509024023 59 0 0.0 0.0 0.00 0.00 0.00 62 1015.5
20260509023523 59 0 0.0 0.0 0.00 0.00 0.00 62 1015.6
20260509023040 59 0 0.0 0.0 0.00 0.00 0.00 62 1015.6
20260509022525 59 0 0.0 0.0 0.00 0.00 0.00 61 1015.5
20260509022024 59 0 0.0 0.0 0.00 0.00 0.00 61 1015.6
20260509021538 60 0 0.0 0.0 0.00 0.00 0.00 61 1015.6
20260509021025 60 0 0.0 0.0 0.00 0.00 0.00 61 1015.7
20260509020526 60 0 0.0 0.0 0.00 0.00 0.00 60 1015.6
20260509020039 60 0 0.0 0.0 0.00 0.00 0.00 60 1015.4
20260509015526 61 0 0.0 0.0 0.00 0.00 0.00 59 1015.4
20260509015024 61 0 0.0 0.0 0.00 0.00 0.00 59 1015.5
20260509014540 61 0 0.0 0.0 0.00 0.00 0.00 57 1015.5
20260509014030 61 0 0.0 0.0 0.00 0.00 0.00 58 1015.3
20260509013523 61 0 0.0 0.0 0.00 0.00 0.00 57 1015.3
20260509013038 61 0 0.0 0.0 0.00 0.00 0.00 57 1015.3
20260509012523 61 0 0.0 0.0 0.00 0.00 0.00 56 1015.1
20260509012022 61 0 0.0 0.0 0.00 0.00 0.00 57 1015.2
20260509011543 62 0 0.0 0.0 0.00 0.00 0.00 56 1015.1
20260509011023 62 0 0.0 0.0 0.00 0.00 0.00 56 1015.1
20260509010523 62 0 0.0 0.0 0.00 0.00 0.00 56 1015.2
20260509010041 62 0 0.0 0.9 0.00 0.00 0.00 55 1015.1
20260509005523 62 0 0.0 0.9 0.00 0.00 0.00 55 1015.0
20260509005023 62 127 0.0 0.9 0.00 0.00 0.00 55 1015.0
20260509004541 62 0 0.0 0.9 0.00 0.00 0.00 55 1015.0
20260509004023 62 0 0.0 1.7 0.00 0.00 0.00 55 1015.1
20260509003526 63 0 0.0 1.7 0.00 0.00 0.00 54 1014.8
20260509003042 63 0 0.0 1.7 0.00 0.00 0.00 54 1015.0
20260509002522 63 107 0.0 2.6 0.00 0.00 0.00 54 1015.0
20260509002022 63 0 0.0 2.6 0.00 0.00 0.00 53 1015.1
20260509001538 63 98 0.9 2.6 0.00 0.00 0.00 53 1015.1
20260509001023 64 0 0.0 1.7 0.00 0.00 0.00 53 1015.2
20260509000523 64 98 0.9 4.3 0.00 0.00 0.00 52 1015.0
20260509000037 64 131 0.9 4.3 0.00 0.00 0.00 53 1015.0
20260508235526 64 96 1.7 4.3 0.00 0.00 0.00 52 1015.0
20260508235024 64 110 0.9 2.6 0.00 0.00 0.00 53 1014.8
20260508234546 64 107 0.0 1.7 0.00 0.00 0.00 53 1015.0
20260508234024 65 0 0.0 1.7 0.00 0.00 0.00 53 1015.0
20260508233523 65 109 0.0 1.7 0.00 0.00 0.00 52 1015.0
20260508233041 65 108 0.9 1.7 0.00 0.00 0.00 52 1014.8
20260508232522 65 105 0.0 1.7 0.00 0.00 0.00 52 1014.7
20260508232023 65 108 0.9 1.7 0.00 0.00 0.00 51 1014.9
20260508231555 65 0 0.0 1.7 0.00 0.00 0.00 51 1015.1
20260508231025 66 0 0.0 1.7 0.00 0.00 0.00 51 1015.0
20260508230525 66 80 0.9 2.6 0.00 0.00 0.00 50 1015.0
20260508230048 66 0 0.0 2.6 0.00 0.00 0.00 51 1014.9
20260508225525 66 103 0.9 1.7 0.00 0.00 0.00 50 1014.9
20260508225024 66 0 0.0 1.7 0.00 0.00 0.00 50 1014.9
20260508224538 66 86 0.0 5.2 0.00 0.00 0.00 49 1014.9
20260508224023 66 123 1.7 5.2 0.00 0.00 0.00 49 1014.9
20260508223523 67 109 0.0 4.3 0.00 0.00 0.00 48 1014.8
20260508223042 67 115 0.9 4.3 0.00 0.00 0.00 48 1014.9
20260508222524 67 115 1.7 4.3 0.00 0.00 0.00 48 1014.9
20260508222023 67 146 1.7 3.5 0.00 0.00 0.00 46 1014.8
20260508221541 67 78 1.7 2.6 0.00 0.00 0.00 46 1014.8
20260508221023 68 0 0.0 2.6 0.00 0.00 0.00 46 1014.8
20260508220522 67 93 0.9 3.5 0.00 0.00 0.00 46 1014.6
20260508220043 67 87 0.9 3.5 0.00 0.00 0.00 44 1014.7
20260508215526 67 105 0.9 5.2 0.00 0.00 0.00 44 1014.7
20260508215023 68 107 0.9 5.2 0.00 0.00 0.00 44 1014.8
20260508214550 68 96 2.6 4.3 0.00 0.00 0.00 43 1014.6
20260508214023 68 111 0.9 2.6 0.00 0.00 0.00 46 1014.8
20260508213523 68 0 0.9 3.5 0.00 0.00 0.00 43 1014.7
20260508213046 68 91 0.9 3.5 0.00 0.00 0.00 43 1014.6
20260508212524 68 92 0.0 7.0 0.00 0.00 0.00 42 1014.5
20260508212023 69 94 2.6 7.0 0.00 0.00 0.00 42 1014.7
20260508211541 69 116 0.0 5.2 0.00 0.00 0.00 42 1014.7
20260508211023 69 90 1.7 6.1 0.00 0.00 0.00 41 1014.6
20260508210523 70 0 0.9 6.1 0.00 0.00 0.00 41 1014.9
20260508210045 70 138 0.9 2.6 0.00 0.00 0.00 41 1015.0
20260508205523 69 252 0.0 4.3 0.00 0.00 0.00 41 1014.9
20260508205025 69 245 0.0 8.7 0.00 0.00 0.00 41 1014.6
20260508204540 69 110 2.6 8.7 0.00 0.00 0.00 40 1014.7
20260508204022 69 110 2.6 6.1 0.00 0.00 0.00 40 1014.6
20260508203522 69 124 2.6 4.3 0.00 0.00 0.00 39 1014.9
20260508203038 70 96 0.9 4.3 0.00 0.00 0.00 39 1014.7
20260508202523 71 96 0.9 4.3 0.00 0.00 0.00 39 1015.0
20260508202023 71 267 0.0 2.6 0.00 0.00 0.00 37 1015.1
20260508201538 70 149 0.0 6.1 0.00 0.00 0.00 40 1015.1
20260508201022 70 174 3.5 6.1 0.00 0.00 0.00 39 1015.2
20260508200522 71 98 0.9 5.2 0.00 0.00 0.00 37 1015.2
20260508200038 72 126 0.9 4.3 0.00 0.00 0.00 35 1015.3
20260508195523 72 203 0.9 6.1 0.00 0.00 0.00 37 1015.2
20260508195024 71 110 0.0 6.1 0.00 0.00 0.00 39 1015.4
20260508194556 71 96 1.7 6.1 0.00 0.00 0.00 35 1015.3
20260508194022 72 0 1.7 6.1 0.00 0.00 0.00 35 1015.5
20260508193523 74 142 0.9 3.5 0.00 0.00 0.00 32 1015.6
20260508193048 74 144 0.0 3.5 0.00 0.00 0.00 34 1015.8
20260508192523 73 138 0.9 3.5 0.00 0.00 0.00 34 1015.8
20260508192023 73 250 0.9 4.3 0.00 0.00 0.00 34 1015.9
20260508191540 74 257 0.0 4.3 0.00 0.00 0.00 31 1015.9
20260508191022 74 155 0.0 3.5 0.00 0.00 0.00 34 1016.0
20260508190525 73 292 0.9 3.5 0.00 0.00 0.00 32 1016.0
20260508190037 72 210 0.0 4.3 0.00 0.00 0.00 36 1016.1
20260508185524 71 288 0.9 6.1 0.00 0.00 0.00 35 1016.1
20260508185022 70 107 0.9 7.0 0.00 0.00 0.00 39 1016.1
20260508184538 70 106 1.7 7.0 0.00 0.00 0.00 35 1016.2
20260508184023 70 138 1.7 6.1 0.00 0.00 0.00 39 1016.3
20260508183523 68 160 2.6 7.0 0.00 0.00 0.00 39 1016.4
20260508183038 68 86 3.5 7.0 0.00 0.00 0.00 40 1016.5
20260508182523 70 91 3.5 7.0 0.00 0.00 0.00 35 1016.7
20260508182024 71 96 1.7 5.2 0.00 0.00 0.00 36 1016.5
20260508181543 72 88 1.7 5.2 0.00 0.00 0.00 35 1016.7
20260508181023 71 102 1.7 7.0 0.00 0.00 0.00 33 1016.7
20260508180523 70 85 1.7 7.0 0.00 0.00 0.00 37 1016.8
20260508180039 69 238 0.9 5.2 0.00 0.00 0.00 37 1016.7
20260508175523 69 115 1.7 5.2 0.00 0.00 0.00 35 1017.0
20260508175024 71 127 3.5 5.2 0.00 0.00 0.00 34 1017.1
20260508174539 72 100 0.9 3.5 0.00 0.00 0.00 35 1017.1
20260508174022 73 139 0.0 1.7 0.00 0.00 0.00 33 1017.1
20260508173523 72 103 0.9 5.2 0.00 0.00 0.00 34 1017.2
20260508173037 71 275 0.0 6.1 0.00 0.00 0.00 38 1017.1
20260508172524 70 111 0.9 6.1 0.00 0.00 0.00 37 1017.3
20260508172023 70 294 1.7 6.1 0.00 0.00 0.00 37 1017.2
20260508171538 69 110 0.9 9.6 0.00 0.00 0.00 35 1017.3
20260508171029 69 106 5.2 9.6 0.00 0.00 0.00 39 1017.6
20260508170523 70 117 1.7 7.0 0.00 0.00 0.00 37 1017.6
20260508170037 70 122 3.5 7.0 0.00 0.00 0.00 36 1017.6
20260508165522 69 249 0.0 10.4 0.00 0.00 0.00 38 1017.8
20260508165023 67 140 4.3 10.4 0.00 0.00 0.00 38 1017.9
20260508164542 69 124 3.5 7.8 0.00 0.00 0.00 38 1017.9
20260508164023 68 285 0.9 7.8 0.00 0.00 0.00 42 1017.9
20260508163522 68 108 4.3 9.6 0.00 0.00 0.00 38 1018.1
20260508163040 68 94 2.6 9.6 0.00 0.00 0.00 41 1018.2
20260508162523 68 86 5.2 9.6 0.00 0.00 0.00 39 1018.2
20260508162022 68 102 0.9 9.6 0.00 0.00 0.00 40 1018.2
20260508161537 68 69 3.5 9.6 0.00 0.00 0.00 40 1018.4
20260508161023 70 101 0.9 5.2 0.00 0.00 0.00 36 1018.4
20260508160523 70 266 0.9 4.3 0.00 0.00 0.00 37 1018.3
20260508160038 69 251 0.9 4.3 0.00 0.00 0.00 36 1018.3
20260508155526 69 109 2.6 4.3 0.00 0.00 0.00 36 1018.4
20260508155023 69 13 0.9 4.3 0.00 0.00 0.00 38 1018.3
20260508154539 68 95 1.7 4.3 0.00 0.00 0.00 39 1018.4
20260508154022 68 169 0.0 3.5 0.00 0.00 0.00 39 1018.5
20260508153523 67 285 0.9 4.3 0.00 0.00 0.00 39 1018.6
20260508153038 67 90 0.9 7.0 0.00 0.00 0.00 41 1018.7
20260508152523 67 0 0.0 7.0 0.00 0.00 0.00 41 1018.7
20260508152025 66 129 3.5 7.0 0.00 0.00 0.00 39 1018.8
20260508151539 66 103 3.5 6.1 0.00 0.00 0.00 37 1018.8
20260508151024 67 52 1.7 5.2 0.00 0.00 0.00 39 1018.8
20260508150524 67 91 0.9 8.7 0.00 0.00 0.00 42 1018.8
20260508150037 66 108 0.9 8.7 0.00 0.00 0.00 40 1018.8
20260508145523 65 94 1.7 8.7 0.00 0.00 0.00 41 1018.7
20260508145023 66 136 2.6 5.2 0.00 0.00 0.00 40 1018.7
20260508144542 65 34 1.7 6.1 0.00 0.00 0.00 43 1018.7
20260508144023 65 110 2.6 6.1 0.00 0.00 0.00 41 1018.7
20260508143523 67 90 2.6 6.1 0.00 0.00 0.00 40 1018.6
20260508143041 66 0 0.0 6.1 0.00 0.00 0.00 47 1018.6
20260508142523 65 98 2.6 6.1 0.00 0.00 0.00 44 1018.6
20260508142023 66 105 1.7 6.1 0.00 0.00 0.00 44 1018.6
20260508141539 65 0 0.0 5.2 0.00 0.00 0.00 44 1018.6
20260508141023 65 133 0.9 5.2 0.00 0.00 0.00 45 1018.7
20260508140526 64 86 0.9 5.2 0.00 0.00 0.00 46 1018.9
20260508140040 64 81 1.7 5.2 0.00 0.00 0.00 45 1018.9
20260508135526 64 90 2.6 5.2 0.00 0.03 0.00 46 1019.0
20260508135024 64 270 0.0 1.7 0.00 0.03 0.00 47 1019.1
20260508134542 64 301 0.0 3.5 0.00 0.03 0.00 47 1019.2
20260508134023 63 108 0.9 3.5 0.00 0.03 0.00 50 1019.2
20260508133528 63 349 0.9 5.2 0.00 0.03 0.00 65 1019.2
20260508133037 61 0 0.0 5.2 0.00 0.03 0.00 67 1019.0
20260508132523 62 295 0.0 0.9 0.00 0.03 0.00 65 1019.1
20260508132023 61 284 0.0 0.9 0.00 0.03 0.00 65 1019.1
20260508131540 60 29 0.0 1.7 0.00 0.03 0.00 68 1019.1
20260508131023 59 0 0.0 1.7 0.00 0.03 0.00 69 1019.1
20260508130522 59 309 0.0 0.9 0.00 0.03 0.00 71 1019.0
20260508130039 59 354 0.0 0.9 0.00 0.03 0.00 72 1019.0
20260508125523 59 0 0.0 1.7 0.00 0.11 0.00 76 1018.9
20260508125023 58 0 0.0 1.7 0.00 0.11 0.00 77 1018.9
20260508124537 57 346 0.0 0.9 0.00 0.11 0.00 79 1018.8
20260508124022 57 0 0.0 0.9 0.00 0.11 0.00 78 1018.6
20260508123522 56 0 0.0 0.9 0.00 0.11 0.00 80 1018.5
20260508123037 55 0 0.0 0.9 0.00 0.11 0.00 81 1018.5
20260508122523 55 0 0.0 1.7 0.00 0.11 0.00 82 1018.4
20260508122022 54 335 0.0 1.7 0.00 0.11 0.00 83 1018.4
20260508121541 54 303 0.0 0.9 0.00 0.11 0.00 85 1018.3
20260508121024 54 0 0.0 0.9 0.00 0.11 0.00 85 1018.3
20260508120523 53 0 0.0 0.9 0.00 0.11 0.00 85 1018.1
20260508120042 53 0 0.0 0.9 0.00 0.11 0.00 86 1018.1
20260508115523 53 0 0.0 0.9 0.00 0.22 0.00 86 1017.9
20260508115022 52 0 0.0 0.9 0.00 0.22 0.00 86 1017.9
20260508114546 52 0 0.0 0.9 0.00 0.22 0.00 86 1018.0
20260508114023 51 0 0.0 0.0 0.00 0.22 0.00 85 1017.9
20260508113523 51 0 0.0 0.0 0.00 0.22 0.00 85 1017.7
20260508113043 50 0 0.0 0.9 0.00 0.22 0.00 85 1017.7
20260508112523 50 0 0.0 0.9 0.00 0.22 0.00 85 1017.7
20260508112023 50 288 0.0 0.0 0.00 0.22 0.00 85 1017.5
20260508111551 49 0 0.0 0.9 0.00 0.22 0.00 85 1017.4
20260508111024 49 0 0.0 0.9 0.00 0.22 0.00 85 1017.2
20260508110523 49 0 0.0 0.0 0.00 0.22 0.00 85 1017.1
20260508110037 49 0 0.0 0.9 0.00 0.22 0.00 85 1017.0
20260508105523 49 0 0.0 0.9 0.00 0.36 0.00 84 1017.0
20260508105022 49 0 0.0 0.0 0.00 0.36 0.00 84 1016.9
20260508104541 49 0 0.0 0.0 0.00 0.36 0.00 84 1016.8
20260508104023 49 0 0.0 0.0 0.00 0.36 0.00 84 1016.7
20260508103523 49 0 0.0 0.9 0.00 0.36 0.00 84 1016.7
20260508103039 49 0 0.0 0.9 0.00 0.36 0.00 84 1016.6
20260508102522 49 288 0.0 0.0 0.00 0.36 0.00 84 1016.5
20260508102023 49 0 0.0 0.0 0.00 0.36 0.00 84 1016.4
20260508101538 49 0 0.0 0.0 0.00 0.36 0.00 84 1016.5
20260508101023 49 0 0.0 0.0 0.00 0.36 0.00 84 1016.4
20260508100522 49 0 0.0 0.0 0.00 0.36 0.00 84 1016.2
20260508100038 49 0 0.0 0.0 0.00 0.36 0.00 84 1016.1
20260508095522 49 0 0.0 0.0 0.00 0.42 0.00 83 1016.1
20260508095022 49 0 0.0 0.0 0.00 0.42 0.00 83 1016.0
20260508094536 49 0 0.0 0.0 0.00 0.42 0.00 83 1015.9
20260508094023 49 0 0.0 0.9 0.00 0.42 0.00 83 1015.8
20260508093524 49 0 0.0 0.9 0.00 0.42 0.00 83 1015.7
20260508093036 49 0 0.0 0.0 0.00 0.42 0.00 81 1015.8
20260508092525 49 0 0.0 0.0 0.00 0.42 0.00 80 1015.8
20260508092024 49 0 0.0 0.0 0.00 0.42 0.00 80 1015.7
20260508091547 49 0 0.0 0.0 0.00 0.42 0.00 80 1015.7
20260508091023 49 0 0.0 0.0 0.00 0.42 0.00 79 1015.7
20260508090523 49 0 0.0 0.0 0.00 0.42 0.00 79 1015.5
20260508090043 49 0 0.0 0.0 0.00 0.42 0.00 77 1015.6
20260508085522 49 0 0.0 0.0 0.00 0.47 0.00 75 1015.5
20260508085022 49 0 0.0 0.0 0.00 0.47 0.00 73 1015.4
20260508084537 49 0 0.0 0.9 0.00 0.47 0.00 73 1015.4
20260508084025 50 0 0.0 0.9 0.00 0.47 0.00 73 1015.4
20260508083524 50 288 0.0 0.9 0.00 0.47 0.00 72 1015.3
20260508083043 50 0 0.0 0.0 0.00 0.47 0.00 71 1015.4
20260508082523 50 0 0.0 0.9 0.00 0.47 0.00 70 1015.4
20260508082024 50 0 0.0 0.9 0.00 0.47 0.00 69 1015.3
20260508081545 50 288 0.9 0.9 0.00 0.47 0.00 69 1015.4
20260508081023 50 0 0.0 0.0 0.00 0.47 0.00 68 1015.4
20260508080527 51 0 0.0 0.0 0.00 0.47 0.00 67 1015.3
20260508080036 51 0 0.0 0.0 0.00 0.47 0.00 67 1015.2
20260508075523 51 0 0.0 0.0 0.00 0.78 0.00 67 1015.2
20260508075023 51 0 0.0 0.0 0.00 0.78 0.00 67 1015.3
20260508074542 51 0 0.0 0.0 0.00 0.78 0.00 66 1015.3
20260508074023 51 0 0.0 0.9 0.00 0.78 0.00 66 1015.2
20260508073523 51 0 0.0 0.9 0.00 0.78 0.00 67 1015.3
20260508073039 51 0 0.0 0.9 0.00 0.78 0.00 69 1015.2
20260508072522 50 0 0.0 0.9 0.00 0.78 0.00 70 1015.3
20260508072022 50 0 0.0 0.0 0.00 0.78 0.00 69 1015.3
20260508071538 50 0 0.0 0.0 0.00 0.78 0.00 68 1015.3
20260508071023 51 0 0.0 0.0 0.00 0.78 0.00 68 1015.2
20260508070525 51 0 0.0 0.0 0.00 0.78 0.00 68 1015.3
20260508070038 51 0 0.0 0.0 0.00 0.78 0.00 68 1015.2
20260508065525 51 0 0.0 0.0 0.00 0.88 0.00 68 1015.3
20260508065023 51 0 0.0 0.0 0.00 0.88 0.00 67 1015.2
20260508064542 51 0 0.0 0.0 0.00 0.88 0.00 67 1015.2
20260508064026 51 0 0.0 0.0 0.00 0.88 0.00 66 1015.2
20260508063526 52 0 0.0 0.0 0.00 0.88 0.00 66 1015.1
20260508063040 52 0 0.0 0.9 0.00 0.88 0.00 66 1015.2
20260508062522 52 0 0.0 0.9 0.00 0.88 0.00 66 1015.2
20260508062023 52 288 0.0 0.9 0.00 0.88 0.00 67 1015.2
20260508061540 52 0 0.0 0.0 0.00 0.88 0.00 66 1015.2
20260508061028 52 0 0.0 0.0 0.00 0.88 0.00 66 1015.3
20260508060525 52 0 0.0 0.0 0.00 0.88 0.00 65 1015.3
20260508060038 53 0 0.0 0.9 0.00 0.88 0.00 65 1015.4
20260508055522 53 0 0.0 0.9 0.00 1.04 0.00 66 1015.3
20260508055022 52 0 0.0 0.0 0.00 1.04 0.00 66 1015.3
20260508054544 52 0 0.0 0.0 0.00 1.04 0.00 66 1015.4
20260508054026 52 0 0.0 0.0 0.00 1.04 0.00 66 1015.4
20260508053526 53 0 0.0 0.0 0.00 1.04 0.00 65 1015.5
20260508053037 53 0 0.0 0.0 0.00 1.04 0.00 65 1015.4
20260508052522 53 0 0.0 0.0 0.00 1.04 0.00 65 1015.3
20260508052022 53 0 0.0 0.0 0.00 1.04 0.00 65 1015.5
20260508051538 54 0 0.0 0.0 0.00 1.04 0.00 65 1015.5
20260508051023 54 0 0.0 0.0 0.00 1.04 0.00 64 1015.4
20260508050524 54 0 0.0 0.0 0.00 1.04 0.00 63 1015.4
20260508050041 54 0 0.0 0.0 0.00 1.04 0.00 63 1015.3
20260508045526 54 0 0.0 0.0 0.00 1.29 0.00 63 1015.2
20260508045025 55 0 0.0 0.0 0.00 1.29 0.00 62 1015.2
20260508044538 55 0 0.0 0.0 0.00 1.29 0.00 62 1015.3
20260508044023 55 0 0.0 0.0 0.00 1.29 0.00 61 1015.3
20260508043523 55 0 0.0 0.0 0.00 1.29 0.00 62 1015.3
20260508043045 55 0 0.0 0.9 0.00 1.29 0.00 62 1015.1
20260508042524 55 0 0.0 0.9 0.00 1.29 0.00 62 1014.9
20260508042024 55 0 0.0 0.9 0.00 1.29 0.00 63 1015.2
20260508041536 55 0 0.0 0.0 0.00 1.29 0.00 64 1015.1
20260508041023 55 0 0.0 0.0 0.00 1.29 0.00 63 1015.2
20260508040523 55 0 0.0 0.0 0.00 1.29 0.00 63 1015.1
20260508040044 55 0 0.0 0.0 0.00 1.29 0.00 62 1014.9
20260508035524 56 0 0.0 0.0 0.00 1.29 1.29 63 1014.9
20260508035025 56 0 0.0 0.0 0.00 1.29 1.29 61 1014.8
20260508034546 56 0 0.0 0.0 0.00 1.29 1.29 61 1014.8
20260508034022 57 0 0.0 0.0 0.00 1.29 1.29 60 1014.9
20260508033522 57 0 0.0 0.0 0.00 1.29 1.29 60 1014.9
20260508033038 57 0 0.0 0.0 0.00 1.29 1.29 59 1014.9